Date,TemperatureHighF,TemperatureAvgF,TemperatureLowF,DewpointHighF,DewpointAvgF,DewpointLowF,HumidityHigh,HumidityAvg,HumidityLow,PressureMaxIn,PressureMinIn,WindSpeedMaxMPH,WindSpeedAvgMPH,GustSpeedMaxMPH,PrecipitationSumIn
2014-1-6,0,0,0,-4,-4,-4,79,79,79,30.30,30.30,11,8,18,0.00
2014-3-12,40,40,40,38,35,33,90,82,76,29.68,29.50,12,8,20,0.17
2014-3-14,44,44,44,37,37,37,75,75,75,30.03,30.03,8,8,8,0.00
2014-3-17,52,45,42,44,37,34,76,74,71,30.03,29.74,6,2,8,0.87
2014-3-18,49,44,37,41,37,31,82,76,74,29.92,29.80,6,4,6,0.00
2014-3-19,60,52,48,51,45,41,82,75,72,30.00,29.77,17,8,24,0.87
2014-3-20,57,55,45,48,46,37,75,72,72,30.00,29.98,5,1,5,0.00
2014-3-21,51,46,38,43,39,32,76,74,73,30.03,29.98,8,5,11,0.00
2014-3-22,61,57,45,52,48,38,75,73,71,30.06,29.95,8,4,11,0.00
2014-3-23,53,46,42,44,38,35,76,75,73,30.24,30.15,8,3,14,0.00
2014-3-24,49,42,35,41,35,28,77,76,74,30.24,30.03,7,2,12,0.00
2014-3-25,32,32,32,28,27,25,85,82,78,30.03,29.98,8,5,8,0.00
2014-3-26,43,43,43,35,35,35,75,75,75,30.30,30.27,6,2,8,0.00
2014-3-27,40,39,39,33,32,32,76,76,76,30.30,30.00,10,6,15,0.00
2014-3-28,58,56,51,54,52,46,96,86,79,29.95,29.80,12,8,19,0.29
2014-3-29,45,42,33,43,41,26,98,96,75,30.15,29.80,7,4,14,0.38
2014-3-30,56,35,32,47,29,27,83,79,72,30.21,30.09,7,2,10,0.00
2014-3-31,68,62,57,58,53,48,72,71,70,29.98,29.95,5,3,6,0.00
2014-4-2,76,68,63,65,58,54,73,70,68,30.00,29.92,5,4,8,0.25
2014-4-3,64,62,58,62,59,57,99,92,80,29.83,29.77,10,5,10,1.59
2014-4-4,60,58,58,60,58,57,99,99,99,29.74,29.65,9,3,9,0.54
2014-4-22,75,65,61,65,55,52,72,71,68,29.95,29.80,8,3,12,0.00
2014-4-24,49,49,49,41,41,41,74,74,74,29.98,29.98,0,0,4,0.00
2014-4-25,60,59,58,60,58,56,99,97,90,29.74,29.62,9,6,15,0.29
2014-4-28,79,77,64,68,67,61,91,73,70,29.95,29.77,3,2,7,1.25
2014-4-29,75,61,53,64,56,48,99,84,68,29.83,29.56,10,4,22,0.33
2014-4-30,58,58,58,56,56,56,93,93,93,29.77,29.77,3,3,6,0.00
2014-5-1,53,53,53,45,45,45,73,73,73,29.95,29.95,3,3,5,0.00
2014-5-2,60,60,60,50,50,50,72,72,72,29.89,29.89,4,4,6,0.00
2014-5-3,65,60,42,55,51,38,87,73,70,29.95,29.89,12,5,15,0.00
2014-5-5,69,68,68,59,58,58,70,70,70,29.86,29.83,1,0,2,0.00
2014-5-6,68,68,68,59,58,58,74,72,70,29.89,29.86,2,1,3,0.00
2014-5-7,62,62,62,52,52,51,71,71,68,30.00,29.92,9,0,9,0.00
2014-5-8,68,67,66,58,57,56,70,70,70,30.00,29.98,1,0,3,0.00
2014-5-9,71,69,61,62,60,56,97,75,69,30.00,29.92,8,5,14,0.08
2014-5-10,76,66,63,66,63,63,98,93,71,30.03,29.95,9,4,9,0.84
2014-5-11,69,65,65,68,64,63,99,94,93,30.12,30.06,4,2,8,6.99
2014-5-12,67,67,67,66,66,66,99,99,99,30.12,30.12,0,0,2,0.00
2014-5-13,73,73,73,62,62,62,69,69,69,30.06,30.06,4,3,6,0.00
2014-5-14,69,68,62,66,65,62,99,89,87,30.00,29.86,3,0,4,1.46
2014-5-15,59,50,45,50,46,40,95,86,72,30.09,29.98,5,1,6,0.13
2014-5-16,48,48,46,47,46,45,97,93,92,30.03,29.98,3,2,4,0.00
2014-5-17,66,66,66,56,56,56,70,70,70,30.15,30.15,2,2,4,0.00
2014-5-18,44,44,44,37,37,37,78,78,78,30.24,30.24,2,2,2,0.00
2014-5-19,53,53,53,44,44,44,73,73,73,30.24,30.24,0,0,2,0.00
2014-5-20,75,75,75,65,65,65,71,71,71,30.09,30.09,7,7,8,0.00
2014-5-21,69,69,69,60,60,60,72,72,72,30.03,30.03,6,6,6,0.00
2014-5-22,69,34,33,59,29,26,87,82,70,30.15,30.06,7,5,8,0.00
2014-5-23,63,63,63,54,54,54,73,73,73,30.15,30.15,1,1,1,0.00
2014-5-25,66,65,62,59,56,53,78,73,71,30.15,30.12,2,0,2,0.00
2014-5-27,68,68,68,65,65,65,90,90,90,30.03,30.03,0,0,2,0.00
2014-5-28,68,67,66,66,64,60,99,89,75,30.03,29.98,2,1,6,0.17
2014-5-29,91,78,69,79,70,64,94,79,67,30.09,30.00,3,0,3,0.13
2014-5-31,73,71,71,63,61,60,72,71,69,30.18,30.09,0,0,0,0.00
2014-6-1,88,88,88,77,77,77,68,68,68,30.12,30.12,4,4,4,0.00
2014-6-2,72,71,69,63,62,61,77,73,71,30.15,30.09,4,3,4,0.00
2014-6-3,87,86,86,76,75,74,69,68,68,30.00,29.98,4,3,4,0.04
2014-6-4,69,69,69,69,69,69,99,99,99,29.92,29.92,4,4,4,0.00
2014-6-8,33,33,33,26,25,25,75,74,72,30.15,29.92,0,0,1,0.00
2014-6-9,81,76,73,70,66,63,71,70,69,29.95,29.89,2,0,2,0.00
2014-6-10,84,70,68,73,67,64,97,90,69,29.89,29.83,6,2,8,1.04
2014-6-11,79,75,68,68,66,64,96,73,70,29.83,29.80,7,6,7,0.13
2014-6-13,67,67,67,63,63,62,88,88,86,29.98,29.98,3,3,6,0.16
2014-6-14,59,59,59,50,50,50,72,72,72,30.12,30.12,1,1,5,0.00
2014-6-16,80,80,80,69,69,69,70,70,70,30.18,30.18,1,1,5,0.00
2014-6-20,91,82,79,78,73,68,87,75,67,30.06,29.92,1,1,4,0.00
2014-6-21,93,85,68,80,76,67,99,76,66,30.00,29.92,4,2,6,0.00
2014-6-22,89,89,89,76,76,76,67,67,67,29.95,29.95,4,4,6,0.00
2014-6-23,73,73,73,64,64,64,73,73,73,29.95,29.92,7,3,13,0.00
2014-6-25,70,70,70,70,70,70,99,99,99,30.00,30.00,4,4,6,0.00
2014-6-26,70,70,70,70,70,70,99,99,99,30.00,29.95,2,0,6,0.00
2014-6-27,70,70,70,70,70,70,99,99,99,30.06,30.06,6,5,6,0.00
2014-6-30,70,70,70,70,70,70,99,99,99,30.03,29.92,6,4,10,0.00
2014-7-1,70,70,70,70,70,70,99,99,99,29.95,29.77,8,3,13,0.54
2014-7-3,70,70,70,70,70,70,99,99,99,30.18,30.18,0,0,8,0.00
2014-7-8,70,70,70,70,70,70,99,99,99,29.95,29.86,9,3,17,0.21
2014-7-9,70,70,70,70,70,70,99,99,99,30.00,29.92,3,0,5,0.21
2014-7-11,33,33,33,24,23,23,69,68,66,30.18,30.09,4,2,6,0.00
2014-7-12,66,66,66,57,57,57,73,73,73,30.18,30.00,5,1,8,0.00
2014-7-13,66,66,66,57,57,57,73,73,73,30.09,29.92,9,3,17,0.17
2014-7-14,66,66,66,57,57,57,73,73,73,29.95,29.86,7,1,11,0.29
2014-7-15,66,66,66,57,57,57,73,73,73,30.00,29.89,5,2,10,0.00
2014-7-16,66,66,66,57,57,57,73,73,73,30.06,29.98,3,1,8,0.04
2014-7-17,66,66,66,57,57,57,73,73,73,30.12,30.03,3,1,6,0.04
2014-7-18,66,66,66,57,57,57,73,73,73,30.15,30.09,1,0,3,0.04
2014-7-19,66,66,66,57,57,57,73,73,73,30.09,30.03,3,1,6,0.00
2014-7-20,66,66,66,57,57,57,73,73,73,30.12,30.03,5,1,5,0.00
2014-7-21,66,66,66,57,57,57,73,73,73,30.15,30.03,3,1,6,0.00
2014-7-22,66,66,66,57,57,57,73,73,73,30.15,30.03,5,1,7,0.00
2014-7-23,66,66,66,57,57,57,73,73,73,30.15,29.95,6,2,10,0.00
2014-7-24,66,66,66,57,57,57,73,73,73,30.09,29.98,6,2,10,0.00
2014-7-25,66,66,66,57,57,57,73,73,73,30.12,29.92,3,1,8,0.00
2014-7-26,66,66,66,57,57,57,73,73,73,29.92,29.92,3,2,5,0.00
2014-7-27,82,67,66,76,59,57,84,73,70,29.95,29.83,6,2,13,2.08
2014-7-28,78,78,78,68,68,68,70,70,70,30.00,30.00,5,5,5,0.00
2014-7-31,68,68,68,58,58,58,72,72,72,30.06,30.06,0,0,2,0.00
2014-8-1,92,82,61,80,71,55,83,71,67,30.12,30.03,3,1,6,0.00
2014-8-2,81,81,81,70,70,70,69,69,69,30.12,30.12,3,2,5,0.00
2014-8-4,69,69,69,59,59,59,70,70,70,30.06,30.06,1,1,2,0.00
2014-8-7,86,79,76,75,68,65,71,70,68,30.00,29.92,2,0,4,0.00
2014-8-8,78,73,72,70,68,67,92,86,75,29.95,29.92,3,1,4,0.00
2014-8-9,91,77,72,78,70,67,96,80,67,30.00,29.92,5,1,7,0.46
2014-8-10,88,82,71,76,73,69,99,75,67,30.00,29.92,6,2,8,0.00
2014-8-11,72,72,71,72,71,67,99,95,85,29.89,29.89,4,1,6,0.04
2014-8-12,82,71,65,71,63,55,99,76,68,29.98,29.83,8,2,11,0.00
2014-8-15,62,62,62,52,52,52,71,71,71,30.06,30.06,0,0,1,0.00
2014-8-17,77,73,69,72,69,65,99,88,73,29.95,29.80,8,2,10,0.58
2014-8-18,80,73,69,71,69,67,99,87,72,29.92,29.80,3,1,6,0.13
2014-8-19,91,77,67,79,70,64,99,81,67,29.89,29.80,17,2,17,0.33
2014-8-20,74,71,67,73,71,66,99,99,95,29.95,29.86,3,1,4,0.33
2014-8-21,92,79,68,79,72,68,99,78,67,30.09,29.98,7,2,13,0.00
2014-8-22,82,79,73,73,72,69,91,78,68,30.06,30.00,6,3,8,0.00
2014-8-23,97,85,71,84,78,70,98,81,66,30.00,29.89,4,0,7,2.35
2014-8-24,71,71,71,71,71,71,98,98,98,30.00,30.00,2,2,3,0.08
2014-8-27,89,83,69,77,73,66,93,74,66,30.12,30.06,4,1,6,0.00
2014-8-28,97,81,70,84,72,66,97,77,66,30.09,29.98,3,1,8,0.00
2014-8-29,96,79,67,83,70,60,90,73,66,30.06,29.98,8,2,10,0.00
2014-8-30,89,76,67,77,68,60,89,78,68,30.06,30.00,7,2,11,0.09
2014-8-31,71,71,70,71,70,70,99,99,99,30.06,30.03,5,3,9,0.08
2014-9-2,83,74,71,72,69,67,98,84,69,30.03,29.92,1,0,3,0.04
2014-9-3,83,77,71,73,71,70,98,84,68,30.06,30.00,2,1,4,0.00
2014-9-10,84,77,71,72,69,67,90,76,69,29.98,29.80,10,5,18,0.00
2014-9-11,76,76,76,75,71,68,96,85,77,29.95,29.86,8,3,12,0.16
2014-9-13,72,58,48,61,50,44,90,78,69,30.30,30.15,6,1,9,0.00
2014-9-14,53,51,47,50,48,44,92,90,85,30.27,30.24,1,0,4,0.00
2014-9-15,73,73,73,62,62,62,68,68,68,30.06,30.06,0,0,1,0.00
2014-9-19,64,64,64,57,57,57,76,76,76,30.03,30.03,1,0,1,0.00
2014-9-22,54,50,47,46,42,40,82,75,73,30.24,30.21,1,0,2,0.00
2014-9-23,80,67,46,68,58,41,84,72,67,30.30,30.21,3,1,8,0.00
2014-9-24,87,66,48,75,57,42,84,72,67,30.30,30.21,3,1,6,0.00
2014-9-25,87,68,52,75,59,46,86,72,67,30.27,30.15,3,1,6,0.00
2014-9-26,90,71,59,78,61,50,84,72,67,30.21,30.12,3,1,11,0.00
2014-9-27,90,72,59,78,62,52,80,72,67,30.21,30.09,3,1,7,0.00
2014-9-28,86,71,62,74,62,52,85,74,68,30.24,30.03,5,1,7,0.00
2014-9-29,80,71,59,69,64,56,96,80,69,30.03,30.00,3,1,5,0.00
2014-10-1,88,88,88,76,76,76,68,68,68,29.95,29.95,0,0,1,0.00
2014-10-5,64,57,37,54,48,33,84,73,70,29.92,29.86,9,6,13,0.00
2014-10-6,70,64,54,60,55,49,84,74,69,29.83,29.71,23,4,30,0.00
2014-10-7,73,66,54,63,60,52,99,81,71,29.89,29.74,14,4,19,0.13
2014-10-10,56,54,52,56,53,51,99,99,99,30.00,29.92,6,2,8,0.00
2014-10-11,56,54,51,53,51,49,99,91,82,30.12,30.00,3,1,6,0.08
2014-10-12,54,53,52,52,51,47,95,91,78,30.03,30.00,3,1,4,0.08
2014-10-13,65,65,65,64,64,64,94,94,94,30.00,29.98,2,2,2,0.58
2014-10-14,66,50,33,59,44,26,99,82,73,30.15,29.62,13,7,20,1.22
2014-10-15,56,54,53,54,53,51,99,94,84,29.77,29.74,7,4,12,0.04
2014-10-16,54,53,51,52,52,51,99,97,94,29.89,29.77,5,2,6,0.00
2014-10-22,45,41,39,38,37,36,89,84,75,30.21,30.18,1,0,2,0.00
2014-10-23,68,58,39,58,50,36,94,77,70,30.24,30.09,4,1,6,0.00
2014-10-24,72,54,41,61,48,37,93,78,69,30.12,30.00,3,0,5,0.00
2014-10-25,78,64,46,67,56,42,94,75,68,30.00,29.92,6,2,9,0.00
2014-10-27,72,69,66,61,59,56,70,69,69,29.95,29.89,9,6,12,0.00
2014-10-28,69,66,65,62,60,55,89,80,70,30.00,29.92,10,6,19,0.08
2014-11-1,30,29,29,24,23,23,78,78,78,30.36,30.36,0,0,3,0.00
2014-11-2,35,31,26,29,25,20,83,77,74,30.42,30.33,3,1,6,0.00
2014-11-3,59,52,37,50,44,30,76,73,70,30.39,30.27,10,5,14,0.00
2014-11-5,54,34,33,52,30,26,90,87,75,30.18,30.12,2,2,6,0.12
2014-11-6,51,45,40,49,39,33,99,80,74,30.15,29.92,13,4,19,0.00
2014-11-7,56,51,39,48,43,32,76,74,72,30.18,30.03,6,2,8,0.00
2014-11-8,56,45,32,47,38,28,85,76,72,30.03,29.86,12,3,15,0.00
2014-11-9,59,46,32,50,38,25,85,75,72,30.12,29.92,7,2,11,0.00
2014-11-14,25,23,21,18,17,15,77,77,77,30.36,30.30,2,0,4,0.00
2014-11-15,49,35,21,41,28,15,77,76,74,30.39,30.12,5,1,6,0.00
2014-11-16,42,37,31,35,32,29,96,83,76,30.15,29.80,6,2,9,0.37
2014-11-17,33,28,26,30,24,19,96,83,75,29.95,29.80,8,4,16,0.37
2014-11-19,50,50,50,42,42,42,74,74,74,29.92,29.92,18,16,24,0.13
2014-11-20,38,28,19,32,22,14,80,76,74,30.33,30.12,8,2,14,0.00
2014-11-21,48,36,18,40,29,12,80,76,74,30.42,30.27,3,2,8,0.00
2014-11-22,52,49,41,44,41,34,76,74,73,30.27,30.24,13,6,17,0.00
2014-11-23,60,55,51,51,47,43,85,75,72,29.95,29.56,6,2,9,0.04
2014-11-24,61,59,46,54,51,40,80,74,72,29.77,29.36,24,15,33,0.86
2014-11-30,31,31,31,26,26,26,83,83,83,30.27,30.27,0,0,6,0.00
2014-12-1,33,33,33,31,30,30,92,89,88,30.42,30.00,6,2,9,0.00
2014-12-4,39,39,39,100,40,38,96,93,96,30.18,30.15,1,0,2,0.25
2014-12-5,49,49,47,100,49,46,96,93,96,30.18,30.15,3,0,3,0.33
2014-12-7,48,39,33,40,32,28,80,76,74,30.39,30.24,5,2,7,0.00
2014-12-8,50,44,33,42,37,28,85,76,74,30.24,30.12,9,4,15,0.00
2014-12-9,48,43,37,40,38,32,96,81,74,30.24,30.06,6,2,8,0.00
2014-12-10,39,38,36,32,31,30,79,77,76,30.27,30.21,3,1,5,0.00
2014-12-12,39,38,38,32,32,31,79,77,76,30.30,30.24,2,1,3,0.00
2014-12-13,48,42,38,40,36,32,81,77,74,30.30,30.15,3,1,5,0.00
2014-12-14,43,42,42,38,37,35,83,80,78,30.18,30.15,2,1,3,0.00
2014-12-16,54,51,43,49,45,36,83,82,78,30.03,29.71,0,0,8,0.00